Time,TemperatureF,DewpointF,PressureIn,WindDirection,WindDirectionDegrees,WindSpeedMPH,WindSpeedGustMPH,Humidity,HourlyPrecipIn,Conditions,Clouds,dailyrainin,SoftwareType,DateUTC
2013-03-09 00:00:00,38.2,35.5,30.24,West,270,0.0,0.0,89,0.00,,,0.00,NetBSD+Arduino,2013-03-09 08:00:00,
2013-03-09 00:06:00,38.2,35.2,30.24,West,270,0.0,0.0,88,0.00,,,0.00,NetBSD+Arduino,2013-03-09 08:06:00,
2013-03-09 00:12:00,38.3,35.3,30.25,West,270,0.0,0.0,88,0.00,,,0.00,NetBSD+Arduino,2013-03-09 08:12:00,
2013-03-09 00:17:00,38.2,35.4,30.24,West,270,0.0,0.0,89,0.00,,,0.00,NetBSD+Arduino,2013-03-09 08:17:00,
2013-03-09 00:22:00,38.0,35.2,30.24,West,270,0.0,0.0,89,0.00,,,0.00,NetBSD+Arduino,2013-03-09 08:22:00,
2013-03-09 00:27:00,37.8,35.3,30.25,West,270,0.0,0.0,90,0.00,,,0.00,NetBSD+Arduino,2013-03-09 08:27:00,
2013-03-09 00:32:00,37.8,35.4,30.25,West,270,0.0,0.0,90,0.00,,,0.00,NetBSD+Arduino,2013-03-09 08:32:00,
2013-03-09 00:37:00,37.7,35.1,30.25,West,270,0.0,0.0,89,0.00,,,0.00,NetBSD+Arduino,2013-03-09 08:37:00,
2013-03-09 00:42:00,37.6,35.0,30.25,North,0,0.0,0.0,90,0.00,,,0.00,NetBSD+Arduino,2013-03-09 08:42:00,
2013-03-09 00:47:00,37.6,35.0,30.25,NW,315,0.0,0.0,90,0.00,,,0.00,NetBSD+Arduino,2013-03-09 08:47:00,
2013-03-09 00:52:00,37.5,34.9,30.25,West,270,0.0,0.0,90,0.00,,,0.00,NetBSD+Arduino,2013-03-09 08:52:00,
2013-03-09 00:57:00,37.5,34.9,30.25,West,270,0.0,0.0,90,0.00,,,0.00,NetBSD+Arduino,2013-03-09 08:57:00,
2013-03-09 01:02:00,37.4,35.0,30.26,West,270,0.0,0.0,90,0.00,,,0.00,NetBSD+Arduino,2013-03-09 09:02:00,
2013-03-09 01:07:00,37.3,34.8,30.26,West,270,0.0,0.0,90,0.00,,,0.00,NetBSD+Arduino,2013-03-09 09:07:00,
2013-03-09 01:12:00,37.3,35.1,30.26,NE,45,0.0,0.0,91,0.00,,,0.00,NetBSD+Arduino,2013-03-09 09:12:00,
2013-03-09 01:17:00,37.2,34.9,30.26,NE,45,0.0,0.0,91,0.00,,,0.00,NetBSD+Arduino,2013-03-09 09:17:00,
2013-03-09 01:22:00,37.1,34.9,30.26,NE,45,0.0,0.0,91,0.00,,,0.00,NetBSD+Arduino,2013-03-09 09:22:00,
2013-03-09 01:27:00,37.1,34.9,30.26,NE,45,0.0,0.0,91,0.00,,,0.00,NetBSD+Arduino,2013-03-09 09:27:00,
2013-03-09 01:32:00,37.1,34.9,30.27,NE,45,0.0,0.0,91,0.00,,,0.00,NetBSD+Arduino,2013-03-09 09:32:00,
2013-03-09 01:37:00,37.5,35.3,30.27,West,270,0.0,0.0,91,0.00,,,0.00,NetBSD+Arduino,2013-03-09 09:37:00,
2013-03-09 01:42:00,37.3,34.8,30.27,West,270,1.5,3.0,90,0.00,,,0.00,NetBSD+Arduino,2013-03-09 09:42:00,
2013-03-09 01:47:00,37.0,34.6,30.27,NW,315,1.0,1.5,90,0.00,,,0.00,NetBSD+Arduino,2013-03-09 09:47:00,
2013-03-09 01:52:00,36.6,34.3,30.27,West,270,1.2,3.0,91,0.00,,,0.00,NetBSD+Arduino,2013-03-09 09:52:00,
2013-03-09 01:57:00,36.3,34.1,30.28,West,270,1.1,1.5,91,0.00,,,0.00,NetBSD+Arduino,2013-03-09 09:57:00,
2013-03-09 02:02:00,36.0,34.1,30.28,NW,315,1.5,1.5,92,0.00,,,0.00,NetBSD+Arduino,2013-03-09 10:02:00,
2013-03-09 02:07:00,35.8,33.9,30.28,West,270,1.5,1.5,92,0.00,,,0.00,NetBSD+Arduino,2013-03-09 10:07:00,
2013-03-09 02:12:00,35.7,33.8,30.28,West,270,0.5,1.5,92,0.00,,,0.00,NetBSD+Arduino,2013-03-09 10:12:00,
2013-03-09 02:17:00,35.6,33.8,30.28,West,270,0.0,1.5,92,0.00,,,0.00,NetBSD+Arduino,2013-03-09 10:17:00,
2013-03-09 02:22:00,35.8,33.9,30.28,West,270,0.0,1.5,92,0.00,,,0.00,NetBSD+Arduino,2013-03-09 10:22:00,
2013-03-09 02:27:00,36.0,34.2,30.28,West,270,0.0,0.0,92,0.00,,,0.00,NetBSD+Arduino,2013-03-09 10:27:00,
2013-03-09 02:32:00,36.3,34.4,30.28,West,270,0.0,0.0,92,0.00,,,0.00,NetBSD+Arduino,2013-03-09 10:32:00,
2013-03-09 02:37:00,36.2,32.9,30.28,West,270,0.0,0.0,87,0.00,,,0.00,NetBSD+Arduino,2013-03-09 10:37:00,
2013-03-09 02:42:00,36.2,34.1,30.28,West,270,0.0,0.0,92,0.00,,,0.00,NetBSD+Arduino,2013-03-09 10:42:00,
2013-03-09 02:47:00,35.9,34.0,30.28,West,270,0.0,0.0,92,0.00,,,0.00,NetBSD+Arduino,2013-03-09 10:47:00,
2013-03-09 02:52:00,35.7,33.7,30.28,West,270,0.0,0.0,92,0.00,,,0.00,NetBSD+Arduino,2013-03-09 10:52:00,
2013-03-09 02:57:00,35.6,33.8,30.28,West,270,0.0,0.0,92,0.00,,,0.00,NetBSD+Arduino,2013-03-09 10:57:00,
2013-03-09 03:02:00,35.6,33.8,30.28,West,270,0.0,0.0,93,0.00,,,0.00,NetBSD+Arduino,2013-03-09 11:02:00,
2013-03-09 03:07:00,35.4,33.6,30.28,West,270,0.0,0.0,93,0.00,,,0.00,NetBSD+Arduino,2013-03-09 11:07:00,
2013-03-09 03:12:00,35.3,33.4,30.28,West,270,0.0,0.0,92,0.00,,,0.00,NetBSD+Arduino,2013-03-09 11:12:00,
2013-03-09 03:17:00,35.2,33.4,30.29,West,270,0.0,0.0,93,0.00,,,0.00,NetBSD+Arduino,2013-03-09 11:17:00,
2013-03-09 03:22:00,35.0,33.3,30.29,West,270,0.0,0.0,93,0.00,,,0.00,NetBSD+Arduino,2013-03-09 11:22:00,
2013-03-09 03:28:00,34.8,33.1,30.29,West,270,0.0,0.0,93,0.00,,,0.00,NetBSD+Arduino,2013-03-09 11:28:00,
2013-03-09 03:33:00,34.6,32.9,30.29,West,270,0.0,0.0,93,0.00,,,0.00,NetBSD+Arduino,2013-03-09 11:33:00,
2013-03-09 03:38:00,34.5,32.8,30.30,West,270,0.0,0.0,93,0.00,,,0.00,NetBSD+Arduino,2013-03-09 11:38:00,
2013-03-09 03:43:00,34.4,32.7,30.30,West,270,0.0,0.0,93,0.00,,,0.00,NetBSD+Arduino,2013-03-09 11:43:00,
2013-03-09 03:48:00,34.2,32.6,30.30,West,270,0.0,0.0,93,0.00,,,0.00,NetBSD+Arduino,2013-03-09 11:48:00,
2013-03-09 03:53:00,34.1,32.5,30.30,West,270,0.0,0.0,93,0.00,,,0.00,NetBSD+Arduino,2013-03-09 11:53:00,
2013-03-09 03:58:00,34.1,32.5,30.30,West,270,0.0,0.0,93,0.00,,,0.00,NetBSD+Arduino,2013-03-09 11:58:00,
2013-03-09 04:03:00,34.1,32.5,30.30,West,270,0.0,0.0,93,0.00,,,0.00,NetBSD+Arduino,2013-03-09 12:03:00,
2013-03-09 04:08:00,34.0,32.3,30.30,West,270,0.0,0.0,93,0.00,,,0.00,NetBSD+Arduino,2013-03-09 12:08:00,
2013-03-09 04:13:00,33.9,32.2,30.31,East,90,0.0,0.0,93,0.00,,,0.00,NetBSD+Arduino,2013-03-09 12:13:00,
2013-03-09 04:18:00,34.0,32.3,30.31,South,180,0.0,0.0,93,0.00,,,0.00,NetBSD+Arduino,2013-03-09 12:18:00,
2013-03-09 04:23:00,33.9,32.2,30.31,East,90,0.0,1.5,93,0.00,,,0.00,NetBSD+Arduino,2013-03-09 12:23:00,
2013-03-09 04:28:00,33.9,32.2,30.31,East,90,0.0,0.0,93,0.00,,,0.00,NetBSD+Arduino,2013-03-09 12:28:00,
2013-03-09 04:33:00,33.8,32.1,30.32,South,180,0.0,0.0,93,0.00,,,0.00,NetBSD+Arduino,2013-03-09 12:33:00,
2013-03-09 04:38:00,33.7,32.0,30.32,South,180,1.5,3.0,93,0.00,,,0.00,NetBSD+Arduino,2013-03-09 12:38:00,
2013-03-09 04:43:00,33.6,31.9,30.32,South,180,0.4,3.0,93,0.00,,,0.00,NetBSD+Arduino,2013-03-09 12:43:00,
2013-03-09 04:48:00,33.7,32.0,30.32,South,180,2.6,3.0,93,0.00,,,0.00,NetBSD+Arduino,2013-03-09 12:48:00,
2013-03-09 04:53:00,33.7,32.0,30.32,South,180,1.9,3.0,93,0.00,,,0.00,NetBSD+Arduino,2013-03-09 12:53:00,
2013-03-09 04:58:00,33.8,32.1,30.32,South,180,0.0,4.5,93,0.00,,,0.00,NetBSD+Arduino,2013-03-09 12:58:00,
2013-03-09 05:03:00,33.8,32.1,30.33,South,180,1.1,1.5,93,0.00,,,0.00,NetBSD+Arduino,2013-03-09 13:03:00,
2013-03-09 05:08:00,33.9,32.2,30.33,South,180,1.1,3.0,93,0.00,,,0.00,NetBSD+Arduino,2013-03-09 13:08:00,
2013-03-09 05:13:00,33.9,32.2,30.33,South,180,0.0,1.5,93,0.00,,,0.00,NetBSD+Arduino,2013-03-09 13:13:00,
2013-03-09 05:18:00,33.8,32.1,30.33,East,90,0.7,1.5,93,0.00,,,0.00,NetBSD+Arduino,2013-03-09 13:18:00,
2013-03-09 05:23:00,33.7,32.0,30.33,South,180,1.1,3.0,93,0.00,,,0.00,NetBSD+Arduino,2013-03-09 13:23:00,
2013-03-09 05:28:00,33.6,31.9,30.33,South,180,0.0,1.5,93,0.00,,,0.00,NetBSD+Arduino,2013-03-09 13:28:00,
2013-03-09 05:33:00,33.5,31.8,30.33,South,180,0.0,1.5,93,0.00,,,0.00,NetBSD+Arduino,2013-03-09 13:33:00,
2013-03-09 05:38:00,33.5,31.4,30.33,South,180,0.0,1.5,92,0.00,,,0.00,NetBSD+Arduino,2013-03-09 13:38:00,
2013-03-09 05:43:00,33.3,31.7,30.34,East,90,0.0,3.0,93,0.00,,,0.00,NetBSD+Arduino,2013-03-09 13:43:00,
2013-03-09 05:48:00,33.2,31.5,30.34,South,180,0.0,1.5,93,0.00,,,0.00,NetBSD+Arduino,2013-03-09 13:48:00,
2013-03-09 05:53:00,33.2,31.5,30.34,NE,45,1.1,3.0,93,0.00,,,0.00,NetBSD+Arduino,2013-03-09 13:53:00,
2013-03-09 05:58:00,33.0,31.3,30.35,NW,315,0.0,1.5,93,0.00,,,0.00,NetBSD+Arduino,2013-03-09 13:58:00,
2013-03-09 06:03:00,32.8,31.1,30.35,NE,45,0.0,0.0,93,0.00,,,0.00,NetBSD+Arduino,2013-03-09 14:03:00,
2013-03-09 06:08:00,32.7,31.0,30.35,North,0,0.0,0.0,93,0.00,,,0.00,NetBSD+Arduino,2013-03-09 14:08:00,
2013-03-09 06:13:00,32.7,30.9,30.35,North,0,0.0,0.0,93,0.00,,,0.00,NetBSD+Arduino,2013-03-09 14:13:00,
2013-03-09 06:18:00,32.7,31.0,30.35,NW,315,0.0,0.0,93,0.00,,,0.00,NetBSD+Arduino,2013-03-09 14:18:00,
2013-03-09 06:23:00,32.6,30.6,30.35,West,270,0.0,0.0,92,0.00,,,0.00,NetBSD+Arduino,2013-03-09 14:23:00,
2013-03-09 06:28:00,32.6,30.9,30.35,NW,315,0.0,0.0,93,0.00,,,0.00,NetBSD+Arduino,2013-03-09 14:28:00,
2013-03-09 06:33:00,32.6,30.9,30.35,NW,315,0.0,0.0,93,0.00,,,0.00,NetBSD+Arduino,2013-03-09 14:33:00,
2013-03-09 06:38:00,32.5,30.7,30.35,NW,315,0.4,1.5,93,0.00,,,0.00,NetBSD+Arduino,2013-03-09 14:38:00,
2013-03-09 06:43:00,32.5,30.7,30.35,NW,315,0.0,1.5,93,0.00,,,0.00,NetBSD+Arduino,2013-03-09 14:43:00,
2013-03-09 06:48:00,32.3,30.6,30.35,NW,315,0.0,0.0,93,0.00,,,0.00,NetBSD+Arduino,2013-03-09 14:48:00,
2013-03-09 06:53:00,32.3,30.6,30.36,NW,315,0.0,0.0,93,0.00,,,0.00,NetBSD+Arduino,2013-03-09 14:53:00,
2013-03-09 06:58:00,32.3,30.6,30.36,East,90,0.0,0.0,93,0.00,,,0.00,NetBSD+Arduino,2013-03-09 14:58:00,
2013-03-09 07:03:00,32.1,30.4,30.37,NE,45,0.0,3.0,93,0.00,,,0.00,NetBSD+Arduino,2013-03-09 15:03:00,
2013-03-09 07:09:00,32.1,30.4,30.38,NW,315,0.0,0.0,93,0.00,,,0.00,NetBSD+Arduino,2013-03-09 15:09:00,
2013-03-09 07:14:00,32.3,30.6,30.38,NW,315,0.0,0.0,93,0.00,,,0.00,NetBSD+Arduino,2013-03-09 15:14:00,
2013-03-09 07:19:00,32.7,31.0,30.38,South,180,0.0,0.0,93,0.00,,,0.00,NetBSD+Arduino,2013-03-09 15:19:00,
2013-03-09 07:24:00,33.1,31.4,30.38,South,180,0.0,1.5,93,0.00,,,0.00,NetBSD+Arduino,2013-03-09 15:24:00,
2013-03-09 07:29:00,33.2,31.5,30.39,East,90,0.0,1.5,93,0.00,,,0.00,NetBSD+Arduino,2013-03-09 15:29:00,
2013-03-09 07:34:00,33.6,31.9,30.39,East,90,0.0,1.5,93,0.00,,,0.00,NetBSD+Arduino,2013-03-09 15:34:00,
2013-03-09 07:39:00,33.6,31.9,30.39,East,90,0.7,1.5,93,0.00,,,0.00,NetBSD+Arduino,2013-03-09 15:39:00,
2013-03-09 07:44:00,33.6,31.9,30.40,East,90,0.0,1.5,93,0.00,,,0.00,NetBSD+Arduino,2013-03-09 15:44:00,
2013-03-09 07:49:00,33.9,32.2,30.40,South,180,2.6,3.0,93,0.00,,,0.00,NetBSD+Arduino,2013-03-09 15:49:00,
2013-03-09 07:54:00,34.1,32.5,30.40,East,90,1.9,3.0,93,0.00,,,0.00,NetBSD+Arduino,2013-03-09 15:54:00,
2013-03-09 07:59:00,34.5,32.8,30.40,South,180,0.0,3.0,93,0.00,,,0.00,NetBSD+Arduino,2013-03-09 15:59:00,
2013-03-09 08:04:00,34.6,32.9,30.40,South,180,0.5,3.0,93,0.00,,,0.00,NetBSD+Arduino,2013-03-09 16:04:00,
2013-03-09 08:09:00,34.8,33.1,30.41,South,180,1.1,3.0,93,0.00,,,0.00,NetBSD+Arduino,2013-03-09 16:09:00,
2013-03-09 08:14:00,35.0,33.4,30.41,South,180,0.6,3.0,93,0.00,,,0.00,NetBSD+Arduino,2013-03-09 16:14:00,
2013-03-09 08:19:00,35.5,33.8,30.41,East,90,0.7,3.0,93,0.00,,,0.00,NetBSD+Arduino,2013-03-09 16:19:00,
2013-03-09 08:24:00,35.6,33.9,30.42,South,180,0.6,3.0,93,0.00,,,0.00,NetBSD+Arduino,2013-03-09 16:24:00,
2013-03-09 08:29:00,35.8,34.2,30.42,NE,45,0.7,3.0,93,0.00,,,0.00,NetBSD+Arduino,2013-03-09 16:29:00,
2013-03-09 08:35:00,35.9,34.3,30.42,NE,45,1.5,3.0,93,0.00,,,0.00,NetBSD+Arduino,2013-03-09 16:35:00,
2013-03-09 08:40:00,36.0,34.4,30.42,NE,45,2.6,4.5,93,0.00,,,0.00,NetBSD+Arduino,2013-03-09 16:40:00,
2013-03-09 08:45:00,36.0,34.4,30.43,South,180,3.4,4.5,93,0.00,,,0.00,NetBSD+Arduino,2013-03-09 16:45:00,
2013-03-09 08:50:00,36.2,34.5,30.43,East,90,1.9,4.5,93,0.00,,,0.00,NetBSD+Arduino,2013-03-09 16:50:00,
2013-03-09 08:55:00,36.5,34.9,30.42,South,180,3.0,4.5,93,0.00,,,0.00,NetBSD+Arduino,2013-03-09 16:55:00,
2013-03-09 09:00:00,36.5,34.2,30.43,South,180,0.4,4.5,91,0.00,,,0.00,NetBSD+Arduino,2013-03-09 17:00:00,
2013-03-09 09:05:00,36.5,34.9,30.42,South,180,3.5,6.0,93,0.00,,,0.00,NetBSD+Arduino,2013-03-09 17:05:00,
2013-03-09 09:10:00,36.7,35.1,30.42,East,90,4.5,6.0,93,0.00,,,0.00,NetBSD+Arduino,2013-03-09 17:10:00,
2013-03-09 09:15:00,36.7,35.1,30.42,South,180,3.4,6.0,93,0.00,,,0.00,NetBSD+Arduino,2013-03-09 17:15:00,
2013-03-09 09:20:00,36.5,34.9,30.43,South,180,1.1,4.5,93,0.00,,,0.00,NetBSD+Arduino,2013-03-09 17:20:00,
2013-03-09 09:25:00,36.6,35.0,30.43,NE,45,0.7,6.0,93,0.00,,,0.00,NetBSD+Arduino,2013-03-09 17:25:00,
2013-03-09 09:30:00,36.6,35.0,30.43,East,90,3.4,4.5,93,0.00,,,0.00,NetBSD+Arduino,2013-03-09 17:30:00,
2013-03-09 09:35:00,38.4,38.4,30.43,NE,45,2.0,4.5,100,0.00,,,0.00,NetBSD+Arduino,2013-03-09 17:35:00,
2013-03-09 09:40:00,38.9,38.9,30.43,North,0,2.2,4.5,100,0.00,,,0.00,NetBSD+Arduino,2013-03-09 17:40:00,
2013-03-09 09:45:00,39.2,39.2,30.43,NE,45,1.1,4.5,100,0.00,,,0.00,NetBSD+Arduino,2013-03-09 17:45:00,
2013-03-09 09:50:00,39.4,39.4,30.43,West,270,0.0,3.0,100,0.00,,,0.00,NetBSD+Arduino,2013-03-09 17:50:00,
2013-03-09 09:55:00,40.5,40.5,30.43,NE,45,1.5,4.5,100,0.00,,,0.00,NetBSD+Arduino,2013-03-09 17:55:00,
2013-03-09 10:00:00,41.3,40.6,30.44,North,0,0.7,3.0,97,0.00,,,0.00,NetBSD+Arduino,2013-03-09 18:00:00,
2013-03-09 10:05:00,42.0,40.5,30.44,NE,45,3.0,4.5,94,0.00,,,0.00,NetBSD+Arduino,2013-03-09 18:05:00,
2013-03-09 10:11:00,41.8,39.7,30.43,East,90,1.1,4.5,92,0.00,,,0.00,NetBSD+Arduino,2013-03-09 18:11:00,
2013-03-09 10:16:00,42.0,39.6,30.44,NW,315,0.4,4.5,91,0.00,,,0.00,NetBSD+Arduino,2013-03-09 18:16:00,
2013-03-09 10:22:00,43.1,40.5,30.43,East,90,0.7,4.5,90,0.00,,,0.00,NetBSD+Arduino,2013-03-09 18:22:00,
2013-03-09 10:27:00,43.8,40.5,30.44,NE,45,3.0,4.5,88,0.00,,,0.00,NetBSD+Arduino,2013-03-09 18:27:00,
2013-03-09 10:32:00,47.2,42.1,30.44,NE,45,1.5,3.0,82,0.00,,,0.00,NetBSD+Arduino,2013-03-09 18:32:00,
2013-03-09 10:37:00,49.2,41.4,30.45,SE,135,1.9,3.0,74,0.00,,,0.00,NetBSD+Arduino,2013-03-09 18:37:00,
2013-03-09 10:42:00,48.1,40.8,30.45,SW,225,1.5,6.0,75,0.00,,,0.00,NetBSD+Arduino,2013-03-09 18:42:00,
2013-03-09 10:47:00,49.0,41.4,30.45,NW,315,1.5,4.5,75,0.00,,,0.00,NetBSD+Arduino,2013-03-09 18:47:00,
2013-03-09 10:52:00,50.0,41.6,30.45,West,270,0.7,4.5,72,0.00,,,0.00,NetBSD+Arduino,2013-03-09 18:52:00,
2013-03-09 10:57:00,50.7,42.0,30.45,NW,315,2.5,3.0,72,0.00,,,0.00,NetBSD+Arduino,2013-03-09 18:57:00,
2013-03-09 11:02:00,51.4,42.1,30.45,North,0,2.0,3.0,70,0.00,,,0.00,NetBSD+Arduino,2013-03-09 19:02:00,
2013-03-09 11:07:00,52.5,42.1,30.45,NW,315,0.7,6.0,67,0.00,,,0.00,NetBSD+Arduino,2013-03-09 19:07:00,
2013-03-09 11:12:00,52.6,42.2,30.45,North,0,1.1,4.5,67,0.00,,,0.00,NetBSD+Arduino,2013-03-09 19:12:00,
2013-03-09 11:17:00,52.5,42.5,30.46,West,270,4.8,6.0,68,0.00,,,0.00,NetBSD+Arduino,2013-03-09 19:17:00,
2013-03-09 11:22:00,53.6,41.0,30.46,SW,225,2.0,4.5,62,0.00,,,0.00,NetBSD+Arduino,2013-03-09 19:22:00,
2013-03-09 11:27:00,54.3,41.7,30.46,SW,225,3.7,6.0,62,0.00,,,0.00,NetBSD+Arduino,2013-03-09 19:27:00,
2013-03-09 11:32:00,53.4,40.0,30.46,SW,225,1.5,6.0,60,0.00,,,0.00,NetBSD+Arduino,2013-03-09 19:32:00,
2013-03-09 11:37:00,53.8,41.0,30.46,SW,225,4.8,6.0,61,0.00,,,0.00,NetBSD+Arduino,2013-03-09 19:37:00,
2013-03-09 11:42:00,53.8,40.7,30.46,SW,225,4.5,4.5,60,0.00,,,0.00,NetBSD+Arduino,2013-03-09 19:42:00,
2013-03-09 11:47:00,54.3,40.7,30.47,South,180,3.0,4.5,60,0.00,,,0.00,NetBSD+Arduino,2013-03-09 19:47:00,
2013-03-09 11:52:00,54.3,41.3,30.47,SW,225,0.5,4.5,61,0.00,,,0.00,NetBSD+Arduino,2013-03-09 19:52:00,
2013-03-09 11:57:00,52.3,41.2,30.47,NW,315,2.2,4.5,65,0.00,,,0.00,NetBSD+Arduino,2013-03-09 19:57:00,
2013-03-09 12:03:00,54.1,40.5,30.47,SW,225,3.0,4.5,59,0.00,,,0.00,NetBSD+Arduino,2013-03-09 20:03:00,
2013-03-09 12:08:00,55.2,40.0,30.47,South,180,3.7,4.5,56,0.00,,,0.00,NetBSD+Arduino,2013-03-09 20:08:00,
2013-03-09 12:14:00,55.0,39.7,30.47,SW,225,2.6,7.5,56,0.00,,,0.00,NetBSD+Arduino,2013-03-09 20:14:00,
2013-03-09 12:19:00,53.4,39.4,30.47,South,180,0.7,6.0,58,0.00,,,0.00,NetBSD+Arduino,2013-03-09 20:19:00,
2013-03-09 12:24:00,52.1,38.6,30.46,East,90,1.1,6.0,59,0.00,,,0.00,NetBSD+Arduino,2013-03-09 20:24:00,
2013-03-09 12:29:00,54.1,39.5,30.47,SW,225,4.1,6.0,57,0.00,,,0.00,NetBSD+Arduino,2013-03-09 20:29:00,
2013-03-09 12:34:00,54.2,39.1,30.47,South,180,2.0,4.5,56,0.00,,,0.00,NetBSD+Arduino,2013-03-09 20:34:00,
2013-03-09 12:39:00,54.6,39.3,30.46,West,270,1.1,4.5,56,0.00,,,0.00,NetBSD+Arduino,2013-03-09 20:39:00,
2013-03-09 12:44:00,55.0,39.5,30.46,East,90,2.5,6.0,55,0.00,,,0.00,NetBSD+Arduino,2013-03-09 20:44:00,
2013-03-09 12:49:00,56.0,41.1,30.46,North,0,0.0,3.0,57,0.00,,,0.00,NetBSD+Arduino,2013-03-09 20:49:00,
2013-03-09 12:54:00,56.3,39.8,30.46,East,90,1.5,4.5,53,0.00,,,0.00,NetBSD+Arduino,2013-03-09 20:54:00,
2013-03-09 12:59:00,57.2,40.9,30.46,South,180,1.9,6.0,54,0.00,,,0.00,NetBSD+Arduino,2013-03-09 20:59:00,
2013-03-09 13:04:00,55.9,40.2,30.46,South,180,1.1,6.0,55,0.00,,,0.00,NetBSD+Arduino,2013-03-09 21:04:00,
2013-03-09 13:09:00,56.2,41.0,30.46,South,180,3.4,6.0,56,0.00,,,0.00,NetBSD+Arduino,2013-03-09 21:09:00,
2013-03-09 13:14:00,56.9,41.5,30.45,South,180,3.7,6.0,56,0.00,,,0.00,NetBSD+Arduino,2013-03-09 21:14:00,
2013-03-09 13:19:00,55.6,40.5,30.46,East,90,3.0,7.5,56,0.00,,,0.00,NetBSD+Arduino,2013-03-09 21:19:00,
2013-03-09 13:24:00,55.7,41.2,30.45,NW,315,0.7,6.0,58,0.00,,,0.00,NetBSD+Arduino,2013-03-09 21:24:00,
2013-03-09 13:29:00,55.3,40.6,30.45,East,90,2.6,6.0,57,0.00,,,0.00,NetBSD+Arduino,2013-03-09 21:29:00,
2013-03-09 13:34:00,55.4,41.0,30.45,South,180,5.6,6.0,58,0.00,,,0.00,NetBSD+Arduino,2013-03-09 21:34:00,
2013-03-09 13:39:00,54.9,40.5,30.45,SW,225,1.1,7.5,58,0.00,,,0.00,NetBSD+Arduino,2013-03-09 21:39:00,
2013-03-09 13:44:00,54.6,40.0,30.45,West,270,0.0,3.0,57,0.00,,,0.00,NetBSD+Arduino,2013-03-09 21:44:00,
2013-03-09 13:49:00,55.2,40.5,30.45,South,180,3.7,4.5,57,0.00,,,0.00,NetBSD+Arduino,2013-03-09 21:49:00,
2013-03-09 13:54:00,54.1,39.5,30.45,South,180,2.2,6.0,57,0.00,,,0.00,NetBSD+Arduino,2013-03-09 21:54:00,
2013-03-09 14:00:00,54.1,39.0,30.45,South,180,1.5,7.5,56,0.00,,,0.00,NetBSD+Arduino,2013-03-09 22:00:00,
2013-03-09 14:05:00,54.0,39.4,30.45,South,180,4.5,7.5,57,0.00,,,0.00,NetBSD+Arduino,2013-03-09 22:05:00,
2013-03-09 14:10:00,53.2,39.4,30.45,South,180,3.4,7.5,59,0.00,,,0.00,NetBSD+Arduino,2013-03-09 22:10:00,
2013-03-09 14:16:00,53.5,40.3,30.45,South,180,2.5,6.0,60,0.00,,,0.00,NetBSD+Arduino,2013-03-09 22:16:00,
2013-03-09 14:21:00,54.4,39.8,30.45,South,180,3.5,7.5,57,0.00,,,0.00,NetBSD+Arduino,2013-03-09 22:21:00,
2013-03-09 14:26:00,53.6,38.9,30.45,South,180,1.5,6.0,57,0.00,,,0.00,NetBSD+Arduino,2013-03-09 22:26:00,
2013-03-09 14:31:00,54.1,39.7,30.45,West,270,3.5,7.5,58,0.00,,,0.00,NetBSD+Arduino,2013-03-09 22:31:00,
2013-03-09 14:36:00,53.8,38.8,30.45,SW,225,5.4,7.5,56,0.00,,,0.00,NetBSD+Arduino,2013-03-09 22:36:00,
2013-03-09 14:41:00,53.6,38.3,30.45,West,270,6.7,9.0,56,0.00,,,0.00,NetBSD+Arduino,2013-03-09 22:41:00,
2013-03-09 14:46:00,53.6,38.3,30.45,West,270,7.5,7.5,55,0.00,,,0.00,NetBSD+Arduino,2013-03-09 22:46:00,
2013-03-09 14:51:00,53.1,38.0,30.45,West,270,3.0,7.5,56,0.00,,,0.00,NetBSD+Arduino,2013-03-09 22:51:00,
2013-03-09 14:56:00,53.1,37.6,30.45,West,270,0.7,10.4,55,0.00,,,0.00,NetBSD+Arduino,2013-03-09 22:56:00,
2013-03-09 15:01:00,53.1,38.6,30.45,SW,225,6.0,9.0,57,0.00,,,0.00,NetBSD+Arduino,2013-03-09 23:01:00,
2013-03-09 15:07:00,53.3,37.3,30.45,South,180,4.5,10.4,54,0.00,,,0.00,NetBSD+Arduino,2013-03-09 23:07:00,
2013-03-09 15:12:00,52.9,37.0,30.45,South,180,2.0,7.5,54,0.00,,,0.00,NetBSD+Arduino,2013-03-09 23:12:00,
2013-03-09 15:17:00,53.4,37.9,30.45,SW,225,3.4,10.4,55,0.00,,,0.00,NetBSD+Arduino,2013-03-09 23:17:00,
2013-03-09 15:22:00,53.6,37.8,30.45,SW,225,3.0,7.5,55,0.00,,,0.00,NetBSD+Arduino,2013-03-09 23:22:00,
2013-03-09 15:27:00,53.4,38.4,30.45,West,270,3.4,7.5,56,0.00,,,0.00,NetBSD+Arduino,2013-03-09 23:27:00,
2013-03-09 15:32:00,53.1,37.2,30.45,South,180,2.2,6.0,54,0.00,,,0.00,NetBSD+Arduino,2013-03-09 23:32:00,
2013-03-09 15:37:00,52.6,38.0,30.45,NW,315,3.5,7.5,57,0.00,,,0.00,NetBSD+Arduino,2013-03-09 23:37:00,
2013-03-09 15:42:00,52.7,37.0,30.45,South,180,3.4,6.0,55,0.00,,,0.00,NetBSD+Arduino,2013-03-09 23:42:00,
2013-03-09 15:47:00,52.7,37.9,30.45,West,270,2.2,7.5,57,0.00,,,0.00,NetBSD+Arduino,2013-03-09 23:47:00,
2013-03-09 15:53:00,52.5,37.7,30.45,West,270,4.0,7.5,56,0.00,,,0.00,NetBSD+Arduino,2013-03-09 23:53:00,
2013-03-09 15:58:00,52.4,37.6,30.45,South,180,0.4,4.5,56,0.00,,,0.00,NetBSD+Arduino,2013-03-09 23:58:00,
2013-03-09 16:03:00,52.5,37.7,30.45,SW,225,1.5,4.5,56,0.00,,,0.00,NetBSD+Arduino,2013-03-10 00:03:00,
2013-03-09 16:08:00,52.1,38.6,30.45,West,270,5.6,6.0,59,0.00,,,0.00,NetBSD+Arduino,2013-03-10 00:08:00,
2013-03-09 16:13:00,52.3,37.7,30.45,West,270,1.5,4.5,57,0.00,,,0.00,NetBSD+Arduino,2013-03-10 00:13:00,
2013-03-09 16:18:00,52.0,37.5,30.45,NW,315,3.5,6.0,57,0.00,,,0.00,NetBSD+Arduino,2013-03-10 00:18:00,
2013-03-09 16:23:00,52.0,37.7,30.45,West,270,0.7,6.0,57,0.00,,,0.00,NetBSD+Arduino,2013-03-10 00:23:00,
2013-03-09 16:28:00,52.0,38.0,30.45,West,270,1.5,4.5,58,0.00,,,0.00,NetBSD+Arduino,2013-03-10 00:28:00,
2013-03-09 16:33:00,52.1,37.3,30.45,NW,315,2.2,6.0,56,0.00,,,0.00,NetBSD+Arduino,2013-03-10 00:33:00,
2013-03-09 16:38:00,52.0,37.9,30.45,NW,315,0.0,3.0,58,0.00,,,0.00,NetBSD+Arduino,2013-03-10 00:38:00,
2013-03-09 16:43:00,52.0,37.6,30.45,SW,225,2.5,6.0,57,0.00,,,0.00,NetBSD+Arduino,2013-03-10 00:43:00,
2013-03-09 16:48:00,52.0,37.4,30.45,SW,225,3.5,6.0,57,0.00,,,0.00,NetBSD+Arduino,2013-03-10 00:48:00,
2013-03-09 16:54:00,51.8,37.7,30.45,South,180,1.5,4.5,58,0.00,,,0.00,NetBSD+Arduino,2013-03-10 00:54:00,
2013-03-09 16:59:00,51.5,37.6,30.45,West,270,0.0,3.0,58,0.00,,,0.00,NetBSD+Arduino,2013-03-10 00:59:00,
2013-03-09 17:04:00,51.3,38.4,30.46,West,270,2.0,3.0,61,0.00,,,0.00,NetBSD+Arduino,2013-03-10 01:04:00,
2013-03-09 17:09:00,51.1,38.4,30.45,South,180,1.5,4.5,61,0.00,,,0.00,NetBSD+Arduino,2013-03-10 01:09:00,
2013-03-09 17:14:00,50.9,38.0,30.45,South,180,0.4,4.5,61,0.00,,,0.00,NetBSD+Arduino,2013-03-10 01:14:00,
2013-03-09 17:19:00,50.8,37.6,30.45,South,180,0.0,4.5,60,0.00,,,0.00,NetBSD+Arduino,2013-03-10 01:19:00,
2013-03-09 17:24:00,50.5,38.0,30.45,West,270,0.0,3.0,62,0.00,,,0.00,NetBSD+Arduino,2013-03-10 01:24:00,
2013-03-09 17:29:00,50.6,37.7,30.45,West,270,0.0,1.5,61,0.00,,,0.00,NetBSD+Arduino,2013-03-10 01:29:00,
2013-03-09 17:34:00,50.5,37.8,30.46,West,270,1.0,1.5,61,0.00,,,0.00,NetBSD+Arduino,2013-03-10 01:34:00,
2013-03-09 17:39:00,50.7,37.8,30.46,NE,45,0.0,3.0,61,0.00,,,0.00,NetBSD+Arduino,2013-03-10 01:39:00,
2013-03-09 17:44:00,50.3,38.2,30.45,South,180,0.0,0.0,62,0.00,,,0.00,NetBSD+Arduino,2013-03-10 01:44:00,
2013-03-09 17:49:00,49.9,38.3,30.46,South,180,0.0,1.5,64,0.00,,,0.00,NetBSD+Arduino,2013-03-10 01:49:00,
2013-03-09 17:54:00,49.5,37.8,30.46,East,90,1.5,3.0,63,0.00,,,0.00,NetBSD+Arduino,2013-03-10 01:54:00,
2013-03-09 17:59:00,49.1,38.1,30.46,South,180,0.0,3.0,65,0.00,,,0.00,NetBSD+Arduino,2013-03-10 01:59:00,
2013-03-09 18:04:00,48.9,37.7,30.46,East,90,0.7,1.5,65,0.00,,,0.00,NetBSD+Arduino,2013-03-10 02:04:00,
2013-03-09 18:09:00,48.7,38.0,30.46,East,90,1.0,1.5,66,0.00,,,0.00,NetBSD+Arduino,2013-03-10 02:09:00,
2013-03-09 18:15:00,48.6,37.6,30.47,East,90,0.0,1.5,65,0.00,,,0.00,NetBSD+Arduino,2013-03-10 02:15:00,
2013-03-09 18:20:00,48.5,38.0,30.47,South,180,0.0,1.5,66,0.00,,,0.00,NetBSD+Arduino,2013-03-10 02:20:00,
2013-03-09 18:25:00,48.2,37.7,30.47,South,180,0.0,0.0,66,0.00,,,0.00,NetBSD+Arduino,2013-03-10 02:25:00,
2013-03-09 18:30:00,48.0,37.8,30.48,South,180,0.0,0.0,67,0.00,,,0.00,NetBSD+Arduino,2013-03-10 02:30:00,
2013-03-09 18:35:00,47.7,37.7,30.48,East,90,0.0,0.0,68,0.00,,,0.00,NetBSD+Arduino,2013-03-10 02:35:00,
2013-03-09 18:40:00,47.4,37.4,30.47,East,90,0.0,0.0,68,0.00,,,0.00,NetBSD+Arduino,2013-03-10 02:40:00,
2013-03-09 18:45:00,47.1,37.3,30.48,South,180,0.0,0.0,68,0.00,,,0.00,NetBSD+Arduino,2013-03-10 02:45:00,
2013-03-09 18:50:00,46.8,37.0,30.48,East,90,0.0,0.0,68,0.00,,,0.00,NetBSD+Arduino,2013-03-10 02:50:00,
2013-03-09 18:55:00,46.7,37.2,30.47,East,90,0.0,0.0,69,0.00,,,0.00,NetBSD+Arduino,2013-03-10 02:55:00,
2013-03-09 19:00:00,46.5,37.4,30.48,East,90,0.0,0.0,70,0.00,,,0.00,NetBSD+Arduino,2013-03-10 03:00:00,
2013-03-09 19:06:00,46.4,37.2,30.48,East,90,0.0,0.0,70,0.00,,,0.00,NetBSD+Arduino,2013-03-10 03:06:00,
2013-03-09 19:11:00,46.5,40.5,30.48,East,90,0.0,0.0,79,0.00,,,0.00,NetBSD+Arduino,2013-03-10 03:11:00,
2013-03-09 19:16:00,46.4,38.6,30.48,East,90,0.0,0.0,74,0.00,,,0.00,NetBSD+Arduino,2013-03-10 03:16:00,
2013-03-09 19:21:00,46.2,39.2,30.48,East,90,0.0,0.0,76,0.00,,,0.00,NetBSD+Arduino,2013-03-10 03:21:00,
2013-03-09 19:26:00,46.2,38.0,30.48,East,90,0.0,0.0,72,0.00,,,0.00,NetBSD+Arduino,2013-03-10 03:26:00,
2013-03-09 19:31:00,45.9,37.4,30.48,East,90,0.0,0.0,72,0.00,,,0.00,NetBSD+Arduino,2013-03-10 03:31:00,
2013-03-09 19:37:00,46.2,37.5,30.48,North,0,0.0,0.0,71,0.00,,,0.00,NetBSD+Arduino,2013-03-10 03:37:00,
2013-03-09 19:42:00,46.5,38.3,30.49,North,0,0.0,0.0,72,0.00,,,0.00,NetBSD+Arduino,2013-03-10 03:42:00,
2013-03-09 19:48:00,46.2,38.3,30.49,North,0,0.0,0.0,73,0.00,,,0.00,NetBSD+Arduino,2013-03-10 03:48:00,
2013-03-09 19:54:00,46.2,38.3,30.49,North,0,0.0,0.0,73,0.00,,,0.00,NetBSD+Arduino,2013-03-10 03:54:00,
2013-03-09 20:00:00,46.4,38.2,30.49,West,270,0.7,1.5,72,0.00,,,0.00,NetBSD+Arduino,2013-03-10 04:00:00,
2013-03-09 20:05:00,46.2,38.6,30.49,NW,315,1.1,1.5,74,0.00,,,0.00,NetBSD+Arduino,2013-03-10 04:05:00,
2013-03-09 20:11:00,45.9,38.5,30.49,West,270,0.7,3.0,75,0.00,,,0.00,NetBSD+Arduino,2013-03-10 04:11:00,
2013-03-09 20:16:00,45.5,38.8,30.49,SW,225,3.0,4.5,77,0.00,,,0.00,NetBSD+Arduino,2013-03-10 04:16:00,
2013-03-09 20:22:00,45.2,38.8,30.50,West,270,1.9,3.0,78,0.00,,,0.00,NetBSD+Arduino,2013-03-10 04:22:00,
2013-03-09 20:28:00,45.0,39.3,30.50,NW,315,0.7,3.0,80,0.00,,,0.00,NetBSD+Arduino,2013-03-10 04:28:00,
2013-03-09 20:33:00,44.7,39.4,30.50,NW,315,1.5,3.0,81,0.00,,,0.00,NetBSD+Arduino,2013-03-10 04:33:00,
2013-03-09 20:38:00,44.4,39.3,30.49,West,270,0.0,1.5,82,0.00,,,0.00,NetBSD+Arduino,2013-03-10 04:38:00,
2013-03-09 20:43:00,44.2,39.4,30.49,West,270,0.0,1.5,83,0.00,,,0.00,NetBSD+Arduino,2013-03-10 04:43:00,
2013-03-09 20:49:00,44.5,39.4,30.50,West,270,1.5,3.0,82,0.00,,,0.00,NetBSD+Arduino,2013-03-10 04:49:00,
2013-03-09 20:54:00,44.3,39.3,30.50,NW,315,0.0,3.0,82,0.00,,,0.00,NetBSD+Arduino,2013-03-10 04:54:00,
2013-03-09 20:59:00,44.3,38.9,30.50,NW,315,1.0,3.0,81,0.00,,,0.00,NetBSD+Arduino,2013-03-10 04:59:00,
2013-03-09 21:00:00,44.3,39.0,30.50,North,0,0.0,3.0,81,0.00,,,0.00,NetBSD+Arduino,2013-03-10 05:00:00,
2013-03-09 21:01:00,44.3,39.0,30.50,North,0,0.4,3.0,81,0.00,,,0.00,NetBSD+Arduino,2013-03-10 05:01:00,
2013-03-09 21:02:00,44.5,39.0,30.50,NW,315,0.0,3.0,81,0.00,,,0.00,NetBSD+Arduino,2013-03-10 05:02:00,
2013-03-09 21:08:00,44.3,38.9,30.50,North,0,0.4,1.5,81,0.00,,,0.00,NetBSD+Arduino,2013-03-10 05:08:00,
2013-03-09 21:13:00,44.0,38.8,30.50,North,0,0.5,4.5,81,0.00,,,0.00,NetBSD+Arduino,2013-03-10 05:13:00,
2013-03-09 21:19:00,43.6,38.8,30.50,North,0,0.6,3.0,83,0.00,,,0.00,NetBSD+Arduino,2013-03-10 05:19:00,
2013-03-09 21:20:00,43.6,38.8,30.50,North,0,1.5,3.0,83,0.00,,,0.00,NetBSD+Arduino,2013-03-10 05:20:00,
2013-03-09 21:25:00,43.5,38.9,30.50,NE,45,0.4,4.5,83,0.00,,,0.00,NetBSD+Arduino,2013-03-10 05:25:00,
2013-03-09 21:30:00,43.2,38.9,30.50,North,0,0.0,1.5,84,0.00,,,0.00,NetBSD+Arduino,2013-03-10 05:30:00,
2013-03-09 21:35:00,43.0,39.0,30.50,North,0,0.0,1.5,85,0.00,,,0.00,NetBSD+Arduino,2013-03-10 05:35:00,
2013-03-09 21:40:00,43.0,38.9,30.50,NW,315,0.0,0.0,85,0.00,,,0.00,NetBSD+Arduino,2013-03-10 05:40:00,
2013-03-09 21:45:00,42.6,38.9,30.50,NW,315,0.0,1.5,86,0.00,,,0.00,NetBSD+Arduino,2013-03-10 05:45:00,
2013-03-09 21:50:00,42.5,39.0,30.50,NW,315,0.0,1.5,87,0.00,,,0.00,NetBSD+Arduino,2013-03-10 05:50:00,
2013-03-09 21:56:00,42.5,38.9,30.50,West,270,0.0,1.5,87,0.00,,,0.00,NetBSD+Arduino,2013-03-10 05:56:00,
2013-03-09 22:01:00,42.3,39.0,30.50,NW,315,0.7,1.5,87,0.00,,,0.00,NetBSD+Arduino,2013-03-10 06:01:00,
2013-03-09 22:06:00,42.3,38.9,30.50,West,270,0.0,1.5,87,0.00,,,0.00,NetBSD+Arduino,2013-03-10 06:06:00,
2013-03-09 22:11:00,42.3,38.9,30.50,NW,315,2.0,3.0,87,0.00,,,0.00,NetBSD+Arduino,2013-03-10 06:11:00,
2013-03-09 22:17:00,42.3,39.0,30.50,North,0,0.4,3.0,87,0.00,,,0.00,NetBSD+Arduino,2013-03-10 06:17:00,
2013-03-09 22:22:00,42.2,38.8,30.50,NW,315,1.5,3.0,87,0.00,,,0.00,NetBSD+Arduino,2013-03-10 06:22:00,
2013-03-09 22:27:00,42.2,38.8,30.50,North,0,0.5,3.0,87,0.00,,,0.00,NetBSD+Arduino,2013-03-10 06:27:00,
2013-03-09 22:32:00,42.2,38.7,30.50,North,0,1.1,4.5,87,0.00,,,0.00,NetBSD+Arduino,2013-03-10 06:32:00,
2013-03-09 22:37:00,42.3,38.8,30.50,North,0,1.0,4.5,87,0.00,,,0.00,NetBSD+Arduino,2013-03-10 06:37:00,
2013-03-09 22:42:00,42.2,38.7,30.50,NE,45,0.0,6.0,87,0.00,,,0.00,NetBSD+Arduino,2013-03-10 06:42:00,
2013-03-09 22:47:00,42.0,38.6,30.50,North,0,2.6,3.0,87,0.00,,,0.00,NetBSD+Arduino,2013-03-10 06:47:00,
2013-03-09 22:52:00,42.0,38.6,30.50,North,0,1.9,3.0,87,0.00,,,0.00,NetBSD+Arduino,2013-03-10 06:52:00,
2013-03-09 22:57:00,41.9,38.7,30.50,NE,45,1.5,4.5,88,0.00,,,0.00,NetBSD+Arduino,2013-03-10 06:57:00,
2013-03-09 23:02:00,41.8,38.6,30.50,North,0,0.4,3.0,88,0.00,,,0.00,NetBSD+Arduino,2013-03-10 07:02:00,
2013-03-09 23:07:00,41.7,38.6,30.50,North,0,0.4,3.0,88,0.00,,,0.00,NetBSD+Arduino,2013-03-10 07:07:00,
2013-03-09 23:12:00,41.8,38.8,30.51,South,180,0.0,1.5,89,0.00,,,0.00,NetBSD+Arduino,2013-03-10 07:12:00,
2013-03-09 23:17:00,41.6,38.6,30.51,NW,315,0.0,3.0,88,0.00,,,0.00,NetBSD+Arduino,2013-03-10 07:17:00,
2013-03-09 23:22:00,41.4,38.6,30.51,NE,45,2.0,3.0,89,0.00,,,0.00,NetBSD+Arduino,2013-03-10 07:22:00,
2013-03-09 23:27:00,41.3,38.4,30.50,North,0,0.5,3.0,89,0.00,,,0.00,NetBSD+Arduino,2013-03-10 07:27:00,
2013-03-09 23:32:00,41.2,38.5,30.50,North,0,0.7,3.0,90,0.00,,,0.00,NetBSD+Arduino,2013-03-10 07:32:00,
2013-03-09 23:37:00,40.8,38.4,30.50,North,0,0.0,0.0,90,0.00,,,0.00,NetBSD+Arduino,2013-03-10 07:37:00,
2013-03-09 23:42:00,40.7,38.3,30.50,North,0,0.0,0.0,91,0.00,,,0.00,NetBSD+Arduino,2013-03-10 07:42:00,
2013-03-09 23:47:00,40.8,38.4,30.51,NW,315,0.0,0.0,91,0.00,,,0.00,NetBSD+Arduino,2013-03-10 07:47:00,
2013-03-09 23:52:00,40.3,38.1,30.50,NW,315,0.0,0.0,91,0.00,,,0.00,NetBSD+Arduino,2013-03-10 07:52:00,
2013-03-09 23:57:00,40.3,38.3,30.50,West,270,0.0,0.0,92,0.00,,,0.00,NetBSD+Arduino,2013-03-10 07:57:00,